Time,TemperatureF,DewpointF,PressureIn,WindDirection,WindDirectionDegrees,WindSpeedMPH,WindSpeedGustMPH,Humidity,HourlyPrecipIn,Conditions,Clouds,dailyrainin,SoftwareType,DateUTC
2013-12-08 00:23:00,20.0,12.0,30.45,WSW,258,11.0,16.0,72,0.00,,,0.00,,2013-12-08 05:23:00,
2013-12-08 00:53:00,20.0,11.0,30.45,WSW,245,13.0,20.0,69,0.00,,,0.00,,2013-12-08 05:53:00,
2013-12-08 01:23:00,20.0,12.0,30.45,WSW,241,12.0,17.0,71,0.00,,,0.00,,2013-12-08 06:23:00,
2013-12-08 01:52:00,19.0,10.0,30.44,WSW,249,12.0,17.0,67,0.00,,,0.00,,2013-12-08 06:52:00,
2013-12-08 02:22:00,19.0,11.0,30.43,WSW,240,10.0,14.0,69,0.00,,,0.00,,2013-12-08 07:22:00,
2013-12-08 02:53:00,19.0,11.0,30.42,SW,235,9.0,14.0,71,0.00,,,0.00,,2013-12-08 07:53:00,
2013-12-08 03:22:00,19.0,11.0,30.43,WSW,245,11.0,18.0,70,0.00,,,0.00,,2013-12-08 08:22:00,
2013-12-08 03:52:00,19.0,12.0,30.44,WSW,247,6.0,14.0,73,0.00,,,0.00,,2013-12-08 08:52:00,
2013-12-08 04:22:00,19.0,12.0,30.43,WSW,252,10.0,17.0,75,0.00,,,0.00,,2013-12-08 09:22:00,
2013-12-08 04:53:00,18.0,11.0,30.44,West,273,10.0,18.0,72,0.00,,,0.00,,2013-12-08 09:53:00,
2013-12-08 05:23:00,18.0,11.0,30.45,West,279,6.0,13.0,72,0.00,,,0.00,,2013-12-08 10:23:00,
2013-12-08 05:53:00,18.0,10.0,30.45,WSW,253,7.0,13.0,71,0.00,,,0.00,,2013-12-08 10:53:00,
2013-12-08 06:22:00,18.0,11.0,30.46,WSW,238,6.0,11.0,73,0.00,,,0.00,,2013-12-08 11:22:00,
2013-12-08 06:52:00,17.0,11.0,30.46,WSW,254,5.0,11.0,78,0.00,,,0.00,,2013-12-08 11:52:00,
2013-12-08 07:22:00,18.0,12.0,30.46,WSW,240,3.0,11.0,76,0.00,,,0.00,,2013-12-08 12:22:00,
2013-12-08 07:53:00,18.0,12.0,30.45,SW,223,6.0,11.0,76,0.00,,,0.00,,2013-12-08 12:53:00,
2013-12-08 08:22:00,18.0,12.0,30.43,SSW,207,6.0,10.0,78,0.00,,,0.00,,2013-12-08 13:22:00,
2013-12-08 08:53:00,18.0,13.0,30.42,SSW,213,2.0,5.0,81,0.00,,,0.00,,2013-12-08 13:53:00,
2013-12-08 09:22:00,18.0,13.0,30.43,SW,217,3.0,7.0,82,0.00,,,0.00,,2013-12-08 14:22:00,
2013-12-08 09:52:00,18.0,14.0,30.42,SSW,207,5.0,7.0,83,0.00,,,0.00,,2013-12-08 14:52:00,
2013-12-08 10:22:00,18.0,13.0,30.42,SSW,207,5.0,9.0,82,0.00,,,0.00,,2013-12-08 15:22:00,
2013-12-08 10:54:00,19.0,15.0,30.43,South,177,3.0,9.0,83,0.00,,,0.00,,2013-12-08 15:54:00,
2013-12-08 11:23:00,19.0,15.0,30.42,SSE,154,1.0,4.0,84,0.00,,,0.00,,2013-12-08 16:23:00,
2013-12-08 11:53:00,18.0,14.0,30.42,SE,140,2.0,5.0,84,0.00,,,0.00,,2013-12-08 16:53:00,
2013-12-08 12:22:00,19.0,15.0,30.39,SSE,148,0.0,6.0,84,0.00,,,0.00,,2013-12-08 17:22:00,
2013-12-08 12:52:00,19.0,15.0,30.38,SSE,149,4.0,6.0,83,0.00,,,0.00,,2013-12-08 17:52:00,
2013-12-08 13:22:00,19.0,15.0,30.37,SE,135,1.0,7.0,85,0.00,,,0.00,,2013-12-08 18:22:00,
2013-12-08 13:52:00,19.0,15.0,30.35,ESE,117,2.0,7.0,85,0.00,,,0.00,,2013-12-08 18:52:00,
2013-12-08 14:22:00,19.0,16.0,30.34,SSE,149,0.0,5.0,86,0.00,,,0.00,,2013-12-08 19:22:00,
2013-12-08 14:42:00,19.0,15.0,30.34,ESE,112,2.0,4.0,85,0.00,,,0.00,,2013-12-08 19:42:00,
2013-12-08 14:52:00,19.0,16.0,30.33,SE,142,1.0,7.0,86,0.00,,,0.00,,2013-12-08 19:52:00,
2013-12-08 15:22:00,19.0,16.0,30.32,ESE,111,3.0,6.0,86,0.00,,,0.00,,2013-12-08 20:22:00,
2013-12-08 15:53:00,19.0,16.0,30.30,ESE,111,7.0,10.0,86,0.00,,,0.00,,2013-12-08 20:53:00,
2013-12-08 16:22:00,19.0,15.0,30.28,ESE,103,3.0,10.0,85,0.00,,,0.00,,2013-12-08 21:22:00,
2013-12-08 16:53:00,19.0,16.0,30.27,East,98,4.0,6.0,86,0.00,,,0.00,,2013-12-08 21:53:00,
2013-12-08 17:23:00,19.0,15.0,30.25,ESE,109,5.0,9.0,85,0.00,,,0.00,,2013-12-08 22:23:00,
2013-12-08 17:53:00,18.0,14.0,30.24,ESE,107,4.0,10.0,85,0.00,,,0.00,,2013-12-08 22:53:00,
2013-12-08 18:22:00,18.0,14.0,30.22,ESE,107,6.0,11.0,85,0.00,,,0.00,,2013-12-08 23:22:00,
2013-12-08 18:53:00,18.0,14.0,30.21,ESE,113,6.0,10.0,85,0.00,,,0.00,,2013-12-08 23:53:00,
2013-12-08 19:22:00,19.0,15.0,30.19,ESE,118,5.0,10.0,83,0.00,,,0.00,,2013-12-09 00:22:00,
2013-12-08 19:52:00,18.0,15.0,30.18,ESE,118,4.0,7.0,86,0.00,,,0.00,,2013-12-09 00:52:00,
2013-12-08 20:22:00,18.0,15.0,30.17,ESE,115,2.0,6.0,86,0.00,,,0.00,,2013-12-09 01:22:00,
2013-12-08 20:52:00,19.0,16.0,30.15,East,90,5.0,7.0,86,0.00,,,0.00,,2013-12-09 01:52:00,
2013-12-08 21:21:00,19.0,16.0,30.13,ESE,107,1.0,4.0,87,0.00,,,0.00,,2013-12-09 02:21:00,
2013-12-08 21:53:00,19.0,16.0,30.10,ESE,111,2.0,7.0,88,0.00,,,0.00,,2013-12-09 02:53:00,
2013-12-08 22:22:00,19.0,16.0,30.09,SE,132,5.0,10.0,88,0.00,,,0.00,,2013-12-09 03:22:00,
2013-12-08 22:54:00,19.0,16.0,30.07,East,91,4.0,9.0,89,0.00,,,0.00,,2013-12-09 03:54:00,
2013-12-08 23:13:00,20.0,18.0,30.05,ESE,103,3.0,10.0,90,0.00,,,0.00,,2013-12-09 04:13:00,
2013-12-08 23:23:00,20.0,18.0,30.05,ESE,103,3.0,10.0,90,0.00,,,0.00,,2013-12-09 04:23:00,
2013-12-08 23:53:00,20.0,18.0,30.02,ENE,70,2.0,5.0,90,0.00,,,0.00,,2013-12-09 04:53:00,